Location: Bruderhein
(53.8035°N, 112.9265°W)
Time: 13:24:48
(UTC+00:00)

Burner II No. 9 - Visible Passes

Search period start: 01 December 2023 00:00
Search period end: 11 December 2023 00:00
Orbit: 744 x 831 km, 98.9° (Epoch: 01 December)

Date Brightness Start Highest point End Pass type
(mag) Time Alt. Az. Time Alt. Az. Time Alt. Az.
01 Dec 9.4 14:27:42 10° ESE 14:31:41 24° NE 14:35:44 10° N visible
02 Dec 9.9 13:58:49 10° E 14:01:51 16° NE 14:04:55 10° NNE visible
03 Dec 10.1 13:30:56 10° NE 13:32:08 11° NE 13:33:21 10° NNE visible
04 Dec 9.3 14:36:08 10° ESE 14:40:19 28° ENE 14:44:36 10° N visible
05 Dec 9.8 14:07:06 10° E 14:10:28 18° NE 14:13:52 10° N visible
06 Dec 10.0 13:38:44 10° ENE 13:40:43 12° NE 13:42:41 10° NNE visible
07 Dec 9.1 14:44:34 10° ESE 14:48:58 31° ENE 14:53:27 10° N visible
08 Dec 9.7 14:15:24 10° E 14:19:03 21° NE 14:22:47 10° N visible
09 Dec 10.0 13:46:47 10° ENE 13:49:17 14° NE 13:51:49 10° NNE visible
10 Dec 8.9 14:53:02 10° SE 14:57:36 35° ENE 15:02:17 10° N visible
